Date,TemperatureHighF,TemperatureAvgF,TemperatureLowF,DewpointHighF,DewpointAvgF,DewpointLowF,HumidityHigh,HumidityAvg,HumidityLow,PressureMaxIn,PressureMinIn,WindSpeedMaxMPH,WindSpeedAvgMPH,GustSpeedMaxMPH,PrecipitationSumIn
2013-3-1,40.7,37.6,33.4,30.7,27.8,24.0,73,68,55,29.93,29.75,15,3,15,0.00
2013-3-2,37.2,31.9,29.2,24.0,21.6,18.5,76,66,56,29.93,29.85,16,3,16,0.00
2013-3-3,37.4,32.0,28.8,22.8,19.6,17.5,72,60,47,29.97,29.85,15,5,24,0.00
2013-3-4,42.7,32.2,24.3,20.1,17.3,14.1,76,55,35,30.07,29.97,21,4,25,0.00
2013-3-5,48.2,37.6,24.5,30.5,21.4,15.2,86,55,32,30.09,29.82,13,3,17,0.00
2013-3-6,41.6,36.5,33.0,34.1,31.0,29.3,88,81,67,30.06,29.71,19,3,19,0.66
2013-3-7,46.9,40.7,37.1,30.3,29.1,27.1,73,63,50,30.21,30.06,15,4,15,0.01
2013-3-8,47.1,39.6,35.3,31.3,28.2,26.3,73,64,52,30.35,30.20,19,4,21,0.00
2013-3-9,59.3,41.0,25.1,30.6,25.7,21.3,87,59,23,30.40,30.26,7,1,7,0.00
2013-3-10,64.3,45.5,23.9,34.7,27.2,20.6,87,55,27,30.31,30.17,13,1,13,0.00
2013-3-11,58.9,49.5,38.9,49.2,37.0,24.3,79,63,36,30.19,29.84,11,2,14,0.00
2013-3-12,57.2,50.0,40.6,51.3,41.6,28.1,86,73,56,29.99,29.75,20,3,22,0.45
2013-3-13,46.7,38.0,28.2,32.9,25.0,19.6,85,60,37,30.09,29.92,27,4,27,0.01
2013-3-14,43.2,36.1,30.3,20.9,18.0,15.5,61,48,36,30.16,30.07,21,7,27,0.00
2013-3-15,57.5,44.1,29.3,36.2,27.4,19.8,72,53,37,30.13,29.79,18,3,18,0.00
2013-3-16,49.1,42.6,36.6,39.4,35.9,32.7,86,77,64,29.94,29.65,13,2,13,0.00
2013-3-17,39.8,36.7,32.8,32.8,28.3,24.4,87,72,56,30.26,29.93,11,2,12,0.00
2013-3-18,36.5,33.0,30.8,30.1,28.4,23.9,87,83,60,30.31,29.90,14,2,14,0.04
2013-3-19,56.4,43.4,32.8,36.7,24.2,10.5,88,53,19,29.95,29.75,25,6,28,0.30
2013-3-20,51.4,41.0,33.6,29.8,17.7,13.1,81,41,23,29.99,29.76,24,7,27,0.00
2013-3-21,34.6,30.3,25.6,26.9,15.1,8.8,73,53,37,29.93,29.81,18,4,20,0.00
2013-3-22,45.8,34.0,25.8,21.2,18.0,13.3,70,53,35,30.03,29.90,17,3,17,0.00
2013-3-23,53.4,37.5,19.1,27.8,21.8,15.6,86,57,31,30.05,29.93,17,2,17,0.00
2013-3-24,41.0,33.2,25.6,30.3,25.0,20.7,86,73,51,30.02,29.65,9,1,9,0.00
2013-3-25,38.9,34.4,32.4,34.2,30.8,29.0,88,87,82,29.73,29.54,5,0,5,0.55
2013-3-26,49.8,39.7,32.0,34.7,30.1,27.2,88,70,46,30.03,29.73,15,3,18,0.07
2013-3-27,47.4,40.9,35.8,31.9,28.8,25.8,73,63,44,30.15,30.02,19,5,19,0.00
2013-3-28,45.7,40.7,34.8,33.7,30.3,27.8,80,66,55,30.26,30.10,15,3,17,0.00
2013-3-29,55.2,44.3,30.5,35.1,29.6,25.6,86,59,33,30.27,30.15,15,2,15,0.00
2013-3-30,60.8,42.1,24.8,33.7,23.9,17.5,87,56,20,30.26,30.10,11,1,12,0.00
2013-3-31,46.9,40.1,31.3,43.2,35.2,22.1,87,83,63,30.11,29.76,9,0,9,0.19